When you browse on this site, cookies collect data to enhance your experience and personalize the content and advertising you see.
Visit our Privacy Policy to learn more. By continuing to use the site, you agree to this use of cookies and data.
  • In United Kingdom
  • List of Countries
  • For 7 days
  • Water Temperature
  • Satellite Maps
  • Weather Map
  • Weather Widgets
  • user-avatar
    Login

    Hourly Weather Annaba

    Today, 19 December, Wednesday

    Time Temperature Precipitation Wind Pressure Humidity
    00:00 +11°C° 0 mm 3 mps 767 mmHg 49%
    01:00 +11°C° 0 mm 3 mps 766 mmHg 46%
    02:00 +11°C° 0 mm 3 mps 766 mmHg 46%
    03:00 +11°C° 0 mm 3 mps 766 mmHg 45%
    04:00 +12°C° 0 mm 2 mps 766 mmHg 45%
    05:00 +12°C° 0 mm 2 mps 766 mmHg 45%
    06:00 +12°C° 0 mm 2 mps 766 mmHg 45%
    07:00 +11°C° 0 mm 3 mps 766 mmHg 44%
    08:00 +13°C° 0 mm 2 mps 766 mmHg 44%
    09:00 +15°C° 0 mm 2 mps 766 mmHg 45%
    10:00 +16°C° 0 mm 2 mps 766 mmHg 45%
    11:00 +18°C° 0 mm 2 mps 766 mmHg 42%
    12:00 +21°C° 0 mm 1 mps 765 mmHg 39%
    13:00 +22°C° 0 mm 1 mps 765 mmHg 35%
    14:00 +22°C° 0 mm 1 mps 765 mmHg 39%
    15:00 +21°C° 0 mm 1 mps 764 mmHg 44%
    16:00 +21°C° 0 mm 1 mps 764 mmHg 48%
    17:00 +19°C° 0 mm 1 mps 764 mmHg 50%
    18:00 +18°C° 0 mm 1 mps 765 mmHg 53%
    19:00 +15°C° 0 mm 1 mps 765 mmHg 56%
    20:00 +15°C° 0 mm 1 mps 765 mmHg 57%
    21:00 +14°C° 0 mm 2 mps 765 mmHg 58%
    22:00 +14°C° 0 mm 2 mps 765 mmHg 59%
    23:00 +14°C° 0 mm 2 mps 766 mmHg 58%

    Tomorrow, 20 December, Thursday

    Time Temperature Precipitation Wind Pressure Humidity
    00:00 +13°C° 0 mm 3 mps 766 mmHg 58%
    01:00 +12°C° 0 mm 3 mps 766 mmHg 57%
    02:00 +12°C° 0 mm 3 mps 766 mmHg 57%
    03:00 +12°C° 0 mm 3 mps 766 mmHg 58%
    04:00 +12°C° 0 mm 3 mps 766 mmHg 58%
    05:00 +12°C° 0 mm 3 mps 766 mmHg 59%
    06:00 +12°C° 0 mm 3 mps 766 mmHg 60%
    07:00 +12°C° 0 mm 3 mps 766 mmHg 61%
    08:00 +14°C° 0 mm 2 mps 767 mmHg 60%
    09:00 +15°C° 0 mm 2 mps 767 mmHg 58%
    10:00 +16°C° 0 mm 2 mps 767 mmHg 57%
    11:00 +17°C° 0 mm 2 mps 767 mmHg 57%
    12:00 +18°C° 0 mm 2 mps 767 mmHg 58%
    13:00 +19°C° 0 mm 2 mps 767 mmHg 58%
    14:00 +19°C° 0 mm 2 mps 766 mmHg 61%
    15:00 +18°C° 0 mm 2 mps 766 mmHg 65%
    16:00 +18°C° 0 mm 2 mps 766 mmHg 68%
    17:00 +17°C° 0.1 mm 2 mps 767 mmHg 75%
    18:00 +16°C° 0.1 mm 2 mps 767 mmHg 81%
    19:00 +15°C° 0.1 mm 1 mps 768 mmHg 88%
    20:00 +14°C° 0 mm 1 mps 768 mmHg 88%
    21:00 +14°C° 0 mm 1 mps 769 mmHg 89%
    22:00 +14°C° 0 mm 1 mps 769 mmHg 89%
    23:00 +14°C° 0 mm 1 mps 769 mmHg 90%

    Day after tomorrow, 21 December, Friday

    Time Temperature Precipitation Wind Pressure Humidity
    00:00 +14°C° 0 mm 1 mps 769 mmHg 90%
    01:00 +14°C° 0 mm 1 mps 769 mmHg 90%
    02:00 +13°C° 0 mm 1 mps 770 mmHg 90%
    03:00 +13°C° 0 mm 1 mps 770 mmHg 90%
    04:00 +13°C° 0 mm 1 mps 770 mmHg 91%
    05:00 +12°C° 0 mm 1 mps 770 mmHg 90%
    06:00 +12°C° 0 mm 1 mps 770 mmHg 90%
    07:00 +12°C° 0 mm 1 mps 771 mmHg 90%
    08:00 +13°C° 0 mm 1 mps 771 mmHg 85%
    09:00 +14°C° 0 mm 1 mps 772 mmHg 79%
    10:00 +16°C° 0 mm 1 mps 772 mmHg 74%
    11:00 +16°C° 0 mm 1 mps 772 mmHg 69%
    12:00 +18°C° 0 mm 1 mps 771 mmHg 64%
    13:00 +19°C° 0 mm 1 mps 771 mmHg 59%
    14:00 +18°C° 0 mm 2 mps 771 mmHg 60%
    15:00 +18°C° 0 mm 2 mps 771 mmHg 61%
    16:00 +17°C° 0 mm 2 mps 771 mmHg 62%
    17:00 +16°C° 0 mm 1 mps 771 mmHg 69%
    18:00 +15°C° 0 mm 1 mps 772 mmHg 76%
    19:00 +13°C° 0 mm 1 mps 772 mmHg 83%
    20:00 +13°C° 0 mm 1 mps 772 mmHg 84%
    21:00 +13°C° 0 mm 1 mps 772 mmHg 85%
    22:00 +12°C° 0 mm 1 mps 772 mmHg 85%
    23:00 +12°C° 0 mm 1 mps 772 mmHg 85%

    22 December, Saturday

    Time Temperature Precipitation Wind Pressure Humidity
    00:00 +12°C° 0 mm 2 mps 772 mmHg 85%
    01:00 +12°C° 0 mm 2 mps 772 mmHg 85%
    02:00 +12°C° 0 mm 2 mps 772 mmHg 84%
    03:00 +12°C° 0 mm 2 mps 771 mmHg 84%
    04:00 +12°C° 0 mm 2 mps 771 mmHg 83%
    05:00 +12°C° 0 mm 2 mps 771 mmHg 83%
    06:00 +10°C° 0 mm 2 mps 771 mmHg 82%
    07:00 +10°C° 0 mm 2 mps 771 mmHg 82%
    08:00 +13°C° 0 mm 2 mps 772 mmHg 76%
    09:00 +14°C° 0 mm 2 mps 772 mmHg 71%
    10:00 +16°C° 0 mm 2 mps 772 mmHg 65%
    11:00 +17°C° 0 mm 2 mps 771 mmHg 59%
    12:00 +18°C° 0 mm 2 mps 771 mmHg 53%
    13:00 +19°C° 0 mm 2 mps 770 mmHg 46%
    14:00 +19°C° 0 mm 2 mps 770 mmHg 48%
    15:00 +19°C° 0 mm 2 mps 770 mmHg 50%
    16:00 +19°C° 0 mm 2 mps 770 mmHg 52%
    17:00 +17°C° 0 mm 2 mps 770 mmHg 57%
    18:00 +15°C° 0 mm 1 mps 770 mmHg 62%
    19:00 +14°C° 0 mm 1 mps 770 mmHg 67%
    20:00 +13°C° 0 mm 1 mps 770 mmHg 67%
    21:00 +13°C° 0 mm 2 mps 771 mmHg 66%
    22:00 +13°C° 0 mm 2 mps 771 mmHg 66%
    23:00 +13°C° 0 mm 2 mps 771 mmHg 65%

    23 December, Sunday

    Time Temperature Precipitation Wind Pressure Humidity
    00:00 +13°C° 0 mm 2 mps 770 mmHg 65%
    01:00 +13°C° 0 mm 2 mps 770 mmHg 64%
    02:00 +13°C° 0 mm 2 mps 770 mmHg 63%
    03:00 +12°C° 0 mm 3 mps 770 mmHg 62%
    04:00 +11°C° 0 mm 3 mps 769 mmHg 61%
    05:00 +11°C° 0 mm 3 mps 769 mmHg 61%
    06:00 +11°C° 0 mm 3 mps 770 mmHg 60%
    07:00 +11°C° 0 mm 3 mps 770 mmHg 59%
    08:00 +14°C° 0 mm 2 mps 770 mmHg 55%
    09:00 +15°C° 0 mm 2 mps 770 mmHg 52%
    10:00 +17°C° 0 mm 2 mps 770 mmHg 49%
    11:00 +18°C° 0 mm 2 mps 770 mmHg 45%
    12:00 +19°C° 0 mm 2 mps 769 mmHg 41%
    13:00 +21°C° 0 mm 2 mps 769 mmHg 37%
    14:00 +20°C° 0 mm 2 mps 769 mmHg 41%
    15:00 +20°C° 0 mm 2 mps 769 mmHg 44%
    16:00 +20°C° 0 mm 2 mps 768 mmHg 48%
    17:00 +19°C° 0 mm 1 mps 769 mmHg 52%
    18:00 +16°C° 0 mm 1 mps 769 mmHg 57%
    19:00 +14°C° 0 mm 1 mps 769 mmHg 61%
    20:00 +14°C° 0 mm 1 mps 769 mmHg 60%
    21:00 +14°C° 0 mm 1 mps 769 mmHg 59%
    22:00 +14°C° 0 mm 2 mps 769 mmHg 59%
    23:00 +14°C° 0 mm 2 mps 769 mmHg 58%

    24 December, Monday

    Time Temperature Precipitation Wind Pressure Humidity
    00:00 +14°C° 0 mm 2 mps 769 mmHg 57%
    01:00 +13°C° 0 mm 2 mps 769 mmHg 56%
    02:00 +13°C° 0 mm 2 mps 769 mmHg 55%
    03:00 +13°C° 0 mm 2 mps 768 mmHg 55%
    04:00 +13°C° 0 mm 2 mps 768 mmHg 54%
    05:00 +13°C° 0 mm 2 mps 768 mmHg 53%
    06:00 +13°C° 0 mm 2 mps 768 mmHg 53%
    07:00 +13°C° 0 mm 2 mps 768 mmHg 52%
    08:00 +15°C° 0 mm 2 mps 768 mmHg 50%
    09:00 +16°C° 0 mm 2 mps 769 mmHg 47%
    10:00 +18°C° 0 mm 2 mps 769 mmHg 45%
    11:00 +20°C° 0 mm 1 mps 768 mmHg 42%
    12:00 +21°C° 0 mm 1 mps 768 mmHg 39%
    13:00 +23°C° 0 mm 1 mps 767 mmHg 36%
    14:00 +22°C° 0 mm 1 mps 767 mmHg 40%
    15:00 +22°C° 0 mm 1 mps 767 mmHg 44%
    16:00 +22°C° 0 mm 1 mps 766 mmHg 47%
    17:00 +20°C° 0 mm 1 mps 766 mmHg 51%
    18:00 +18°C° 0 mm 1 mps 767 mmHg 54%
    19:00 +15°C° 0 mm 1 mps 767 mmHg 57%
    20:00 +15°C° 0 mm 1 mps 767 mmHg 56%
    21:00 +15°C° 0 mm 1 mps 767 mmHg 56%
    22:00 +15°C° 0 mm 1 mps 767 mmHg 55%
    23:00 +15°C° 0 mm 1 mps 767 mmHg 54%
    Show more